Kalamazoo, MI

7:28 AM EST on November 23, 2017 (GMT -0500)
Kalamazoo-Battle Creek International

Weather History for KAZO - January, 1990

Change the Weather History Date:

Friday, January 12, 1990

  Actual Average Record
Temperature  
Mean Temperature 24 °F 24 °F  
Max Temperature 26 °F 31 °F 58 °F (2013)
Min Temperature 23 °F 18 °F 0 °F (1977)
Degree Days  
Heating Degree Days 40 41  
Month to date heating degree days 484  
Since 1 July heating degree days 2935  
Cooling Degree Days 0 0  
Month to date cooling degree days 0  
Year to date cooling degree days 0  
Moisture  
Dew Point 19 °F    
Average Humidity 79    
Maximum Humidity 92    
Minimum Humidity 69    
Precipitation  
Precipitation 0.00 in 0.05 in 2.39 in (1960)
Month to date precipitation 0.71  
Year to date precipitation 0.71  
Sea Level Pressure  
Sea Level Pressure 29.87 in    
Wind  
Wind Speed 17 mph (NW)    
Max Wind Speed 23 mph    
Max Gust Speed 29 mph    
Visibility 5 miles    
Events Snow    
T = Trace of Precipitation, MM = Missing Value Source: NWS Daily Summary

Daily Weather History Graph

Daily Weather History Graph

Search for Another Location

Airport or City:

Trip Planner

Search our weather history database for the weather conditions in past years. The results will help you decide how hot, cold, wet, or windy it might be!

Date:

Astronomy

Jan. 12, 1990 Rise Set
Actual Time 8:09 AM EST 5:31 PM EST
Civil Twilight 7:38 AM EST 6:02 PM EST
Nautical Twilight 7:03 AM EST 6:37 PM EST
Astronomical Twilight 6:30 AM EST 7:11 PM EST
Moon 7:24 PM EST (1/12) 9:14 AM EST (1/12)
Length of Visible Light 10h 24m
Length of Day
9h 21m
Full, 97% of the Moon is Illuminated
Jan 12
Full
Jan 18
Last Quarter
Jan 26
New
Feb 2
First Quarter
Feb 9
Full

Hourly Weather History & Observations

Time (EST) Temp. Windchill Dew Point Humidity Pressure Visibility Wind Dir Wind Speed Gust Speed Precip Events Conditions
6:00 AM 25.2 °F 11.6 °F 23.2 °F 92% 29.65 in 1.0 mi WNW 18.4 mph 23.0 mph N/A Snow Light Snow
7:00 AM 25.2 °F 11.6 °F 22.1 °F 88% 29.67 in 1.0 mi WNW 18.4 mph - N/A Snow Light Snow
7:25 AM - - - N/A% 29.69 in 4.0 mi NW 11.5 mph 18.4 mph N/A   Unknown
8:00 AM 24.3 °F 10.8 °F 21.2 °F 88% 29.70 in 10.5 mi NW 17.3 mph - N/A Snow Light Snow
8:30 AM - - - N/A% 29.73 in 5.5 mi NW 13.8 mph - N/A   Unknown
9:00 AM 23.2 °F 10.8 °F 20.1 °F 88% 29.74 in 5.5 mi NW 13.8 mph - N/A Snow Light Snow
10:00 AM 23.2 °F 10.3 °F 19.2 °F 85% 29.77 in 5.5 mi NW 15.0 mph - N/A Snow Light Snow
11:00 AM 24.3 °F 11.2 °F 18.1 °F 77% 29.81 in 2.0 mi NW 16.1 mph - N/A Snow Light Snow
12:00 PM 24.3 °F 10.8 °F 18.1 °F 77% 29.82 in 2.0 mi WNW 17.3 mph - N/A Snow Light Snow
1:00 PM 23.2 °F 7.5 °F 17.2 °F 78% 29.84 in 3.0 mi NW 23.0 mph 28.8 mph N/A Snow Light Snow
1:10 PM - - - N/A% 29.84 in 2.0 mi NW 17.3 mph 28.8 mph N/A   Unknown
2:00 PM 24.3 °F 9.6 °F 17.2 °F 75% 29.82 in 7.0 mi NW 20.7 mph 27.6 mph N/A Snow Light Snow Showers
3:00 PM 25.2 °F 12.0 °F 19.2 °F 78% 29.89 in 1.0 mi NW 17.3 mph 28.8 mph N/A Snow Light Snow Showers
4:00 PM 23.2 °F 9.0 °F 19.2 °F 85% 29.92 in 1.0 mi NW 18.4 mph 28.8 mph N/A Snow Light Snow Showers
5:00 PM 23.2 °F 8.2 °F 18.1 °F 81% 29.96 in 2.0 mi NNW 20.7 mph 28.8 mph N/A Snow Light Snow
6:20 PM - - - N/A% 30.02 in 7.0 mi NW 13.8 mph - N/A   Unknown
7:00 PM 25.2 °F 13.3 °F 16.2 °F 69% 30.03 in 7.0 mi North 13.8 mph - N/A Snow Light Snow
8:00 PM 25.2 °F 12.9 °F 16.2 °F 69% 30.06 in 10.0 mi NNW 15.0 mph - N/A   Overcast
9:00 PM 26.2 °F 15.8 °F 18.1 °F 71% 30.09 in 5.0 mi NW 11.5 mph - N/A Snow Light Snow
10:00 PM 26.2 °F 17.1 °F 19.2 °F 75% 30.09 in 10.0 mi NNW 9.2 mph - N/A Snow Light Snow
11:00 PM 26.2 °F 13.8 °F 18.1 °F 71% 30.11 in 10.0 mi NNW 16.1 mph - N/A Snow Light Snow